owner,sensor,date,latitude,longitude,vertical_datum,wind_speed,wind_to_direction,wind_speed_of_gust,qcFlag 
DISL,ioos:station:DISL:KATA:1,2013-08-01T00:00:00Z,30.2583,-88.2131,0.0,4.31,225.1,-9999.0,'1111122,1111122,1111122' 
DISL,ioos:station:DISL:KATA:1,2013-08-01T00:30:00Z,30.2583,-88.2131,0.0,4.97,233.6,-9999.0,'1111122,1111122,1111122' 
DISL,ioos:station:DISL:KATA:1,2013-08-01T01:00:00Z,30.2583,-88.2131,0.0,2.89,230.6,-9999.0,'1111122,1111122,1111122' 
DISL,ioos:station:DISL:KATA:1,2013-08-01T01:30:00Z,30.2583,-88.2131,0.0,4.1,211.4,-9999.0,'1111122,1111122,1111122' 
DISL,ioos:station:DISL:KATA:1,2013-08-01T02:00:00Z,30.2583,-88.2131,0.0,4.95,213.7,-9999.0,'1111122,1111122,1111122' 
DISL,ioos:station:DISL:KATA:1,2013-08-01T02:30:00Z,30.2583,-88.2131,0.0,5.22,206.2,-9999.0,'1111122,1111122,1111122' 
DISL,ioos:station:DISL:KATA:1,2013-08-01T03:00:00Z,30.2583,-88.2131,0.0,5.32,214.2,-9999.0,'1111122,1111122,1111122' 
DISL,ioos:station:DISL:KATA:1,2013-08-01T03:30:00Z,30.2583,-88.2131,0.0,5.82,215.4,-9999.0,'1111122,1111122,1111122' 
DISL,ioos:station:DISL:KATA:1,2013-08-01T04:00:00Z,30.2583,-88.2131,0.0,5.77,221.9,-9999.0,'1111122,1111122,1111122' 
DISL,ioos:station:DISL:KATA:1,2013-08-01T04:30:00Z,30.2583,-88.2131,0.0,5.85,219.0,-9999.0,'1111122,1111122,1111122' 
DISL,ioos:station:DISL:KATA:1,2013-08-01T05:00:00Z,30.2583,-88.2131,0.0,6.04,222.8,-9999.0,'1111122,1111122,1111122' 
DISL,ioos:station:DISL:KATA:1,2013-08-01T05:30:00Z,30.2583,-88.2131,0.0,6.35,225.0,-9999.0,'1111122,1111122,1111122' 
DISL,ioos:station:DISL:KATA:1,2013-08-01T06:00:00Z,30.2583,-88.2131,0.0,6.58,222.5,-9999.0,'1111122,1111122,1111122' 
DISL,ioos:station:DISL:KATA:1,2013-08-01T06:30:00Z,30.2583,-88.2131,0.0,5.98,231.7,-9999.0,'1111122,1111122,1111122' 
DISL,ioos:station:DISL:KATA:1,2013-08-01T07:00:00Z,30.2583,-88.2131,0.0,5.18,237.0,-9999.0,'1111122,1111122,1111122' 
DISL,ioos:station:DISL:KATA:1,2013-08-01T07:30:00Z,30.2583,-88.2131,0.0,5.31,239.6,-9999.0,'1111122,1111122,1111122' 
DISL,ioos:station:DISL:KATA:1,2013-08-01T08:00:00Z,30.2583,-88.2131,0.0,5.52,251.4,-9999.0,'1111122,1111122,1111122' 
DISL,ioos:station:DISL:KATA:1,2013-08-01T08:30:00Z,30.2583,-88.2131,0.0,5.56,249.6,-9999.0,'1111122,1111122,1111122' 
DISL,ioos:station:DISL:KATA:1,2013-08-01T09:00:00Z,30.2583,-88.2131,0.0,6.48,259.3,-9999.0,'1111122,1111122,1111122' 
DISL,ioos:station:DISL:KATA:1,2013-08-01T09:30:00Z,30.2583,-88.2131,0.0,7.07,262.8,-9999.0,'1111122,1111122,1111122' 
DISL,ioos:station:DISL:KATA:1,2013-08-01T10:00:00Z,30.2583,-88.2131,0.0,7.06,268.8,-9999.0,'1111122,1111122,1111122' 
DISL,ioos:station:DISL:KATA:1,2013-08-01T10:30:00Z,30.2583,-88.2131,0.0,7.3,276.4,-9999.0,'1111122,1111122,1111122' 
DISL,ioos:station:DISL:KATA:1,2013-08-01T11:00:00Z,30.2583,-88.2131,0.0,6.71,272.9,-9999.0,'1111122,1111122,1111122' 
DISL,ioos:station:DISL:KATA:1,2013-08-01T11:30:00Z,30.2583,-88.2131,0.0,6.1,292.4,-9999.0,'1111122,1111122,1111122' 
DISL,ioos:station:DISL:KATA:1,2013-08-01T12:00:00Z,30.2583,-88.2131,0.0,5.28,260.1,-9999.0,'1111122,1111122,1111122' 
DISL,ioos:station:DISL:KATA:1,2013-08-01T12:30:00Z,30.2583,-88.2131,0.0,8.74,209.1,-9999.0,'1111122,1111122,1111122' 
DISL,ioos:station:DISL:KATA:1,2013-08-01T13:00:00Z,30.2583,-88.2131,0.0,5.86,276.1,-9999.0,'1111122,1111122,1111122' 
DISL,ioos:station:DISL:KATA:1,2013-08-01T13:30:00Z,30.2583,-88.2131,0.0,5.62,243.9,-9999.0,'1111122,1111122,1111122' 
DISL,ioos:station:DISL:KATA:1,2013-08-01T14:00:00Z,30.2583,-88.2131,0.0,4.96,290.5,-9999.0,'1111122,1111122,1111122' 
DISL,ioos:station:DISL:KATA:1,2013-08-01T14:30:00Z,30.2583,-88.2131,0.0,4.94,253.1,-9999.0,'1111122,1111122,1111122' 
DISL,ioos:station:DISL:KATA:1,2013-08-01T15:00:00Z,30.2583,-88.2131,0.0,4.47,252.0,-9999.0,'1111122,1111122,1111122' 
DISL,ioos:station:DISL:KATA:1,2013-08-01T15:30:00Z,30.2583,-88.2131,0.0,5.0,281.3,-9999.0,'1111122,1111122,1111122' 
DISL,ioos:station:DISL:KATA:1,2013-08-01T16:00:00Z,30.2583,-88.2131,0.0,5.53,268.9,-9999.0,'1111122,1111122,1111122' 
DISL,ioos:station:DISL:KATA:1,2013-08-01T16:30:00Z,30.2583,-88.2131,0.0,5.05,262.4,-9999.0,'1111122,1111122,1111122' 
DISL,ioos:station:DISL:KATA:1,2013-08-01T17:00:00Z,30.2583,-88.2131,0.0,5.83,270.2,-9999.0,'1111122,1111122,1111122' 
DISL,ioos:station:DISL:KATA:1,2013-08-01T17:30:00Z,30.2583,-88.2131,0.0,5.1,269.7,-9999.0,'1111122,1111122,1111122' 
DISL,ioos:station:DISL:KATA:1,2013-08-01T18:00:00Z,30.2583,-88.2131,0.0,5.71,252.2,-9999.0,'1111122,1111122,1111122' 
DISL,ioos:station:DISL:KATA:1,2013-08-01T18:30:00Z,30.2583,-88.2131,0.0,6.58,247.6,-9999.0,'1111122,1111122,1111122' 
DISL,ioos:station:DISL:KATA:1,2013-08-01T19:00:00Z,30.2583,-88.2131,0.0,7.19,252.1,-9999.0,'1111122,1111122,1111122' 
DISL,ioos:station:DISL:KATA:1,2013-08-01T19:30:00Z,30.2583,-88.2131,0.0,7.38,261.7,-9999.0,'1111122,1111122,1111122' 
DISL,ioos:station:DISL:KATA:1,2013-08-01T20:00:00Z,30.2583,-88.2131,0.0,4.78,265.0,-9999.0,'1111122,1111122,1111122' 
DISL,ioos:station:DISL:KATA:1,2013-08-01T20:30:00Z,30.2583,-88.2131,0.0,4.62,324.5,-9999.0,'1111122,1111122,1111122' 
DISL,ioos:station:DISL:KATA:1,2013-08-01T21:00:00Z,30.2583,-88.2131,0.0,1.97,43.96,-9999.0,'1111122,1111122,1111122' 
DISL,ioos:station:DISL:KATA:1,2013-08-01T21:30:00Z,30.2583,-88.2131,0.0,4.78,72.33,-9999.0,'1111122,1111122,1111122' 
DISL,ioos:station:DISL:KATA:1,2013-08-01T22:00:00Z,30.2583,-88.2131,0.0,6.54,290.6,-9999.0,'1111122,1111122,1111122' 
DISL,ioos:station:DISL:KATA:1,2013-08-01T22:30:00Z,30.2583,-88.2131,0.0,3.8,303.4,-9999.0,'1111122,1111122,1111122' 
DISL,ioos:station:DISL:KATA:1,2013-08-01T23:00:00Z,30.2583,-88.2131,0.0,4.34,315.9,-9999.0,'1111122,1111122,1111122' 
DISL,ioos:station:DISL:KATA:1,2013-08-01T23:30:00Z,30.2583,-88.2131,0.0,3.72,332.3,-9999.0,'1111122,1111122,1111122' 
DISL,ioos:station:DISL:KATA:1,2013-08-02T00:00:00Z,30.2583,-88.2131,0.0,2.55,306.8,-9999.0,'1111122,1111122,1111122' 
DISL,ioos:station:DISL:KATA:1,2013-08-02T00:30:00Z,30.2583,-88.2131,0.0,2.06,320.7,-9999.0,'1111122,1111122,1111122' 
DISL,ioos:station:DISL:KATA:1,2013-08-02T01:00:00Z,30.2583,-88.2131,0.0,3.97,7.61,-9999.0,'1111122,1111122,1111122' 
DISL,ioos:station:DISL:KATA:1,2013-08-02T01:30:00Z,30.2583,-88.2131,0.0,4.3,27.78,-9999.0,'1111122,1111122,1111122' 
DISL,ioos:station:DISL:KATA:1,2013-08-02T02:00:00Z,30.2583,-88.2131,0.0,3.18,24.69,-9999.0,'1111122,1111122,1111122' 
DISL,ioos:station:DISL:KATA:1,2013-08-02T02:30:00Z,30.2583,-88.2131,0.0,3.05,357.6,-9999.0,'1111122,1111122,1111122' 
DISL,ioos:station:DISL:KATA:1,2013-08-02T03:00:00Z,30.2583,-88.2131,0.0,2.16,333.5,-9999.0,'1111122,1111122,1111122' 
DISL,ioos:station:DISL:KATA:1,2013-08-02T03:30:00Z,30.2583,-88.2131,0.0,1.11,41.43,-9999.0,'1111122,1111122,1111122' 
DISL,ioos:station:DISL:KATA:1,2013-08-02T04:00:00Z,30.2583,-88.2131,0.0,0.79,354.8,-9999.0,'1111122,1111122,1111122' 
DISL,ioos:station:DISL:KATA:1,2013-08-02T04:30:00Z,30.2583,-88.2131,0.0,1.92,47.94,-9999.0,'1111122,1111122,1111122' 
DISL,ioos:station:DISL:KATA:1,2013-08-02T05:00:00Z,30.2583,-88.2131,0.0,2.04,39.28,-9999.0,'1111122,1111122,1111122' 
DISL,ioos:station:DISL:KATA:1,2013-08-02T05:30:00Z,30.2583,-88.2131,0.0,2.53,27.19,-9999.0,'1111122,1111122,1111122' 
DISL,ioos:station:DISL:KATA:1,2013-08-02T06:00:00Z,30.2583,-88.2131,0.0,1.51,62.08,-9999.0,'1111122,1111122,1111122' 
DISL,ioos:station:DISL:KATA:1,2013-08-02T06:30:00Z,30.2583,-88.2131,0.0,1.2,69.21,-9999.0,'1111122,1111122,1111122' 
DISL,ioos:station:DISL:KATA:1,2013-08-02T07:00:00Z,30.2583,-88.2131,0.0,2.2,19.55,-9999.0,'1111122,1111122,1111122' 
DISL,ioos:station:DISL:KATA:1,2013-08-02T07:30:00Z,30.2583,-88.2131,0.0,1.88,1.041,-9999.0,'1111122,1111122,1111122' 
DISL,ioos:station:DISL:KATA:1,2013-08-02T08:00:00Z,30.2583,-88.2131,0.0,0.53,80.5,-9999.0,'1111122,1111122,1111122' 
DISL,ioos:station:DISL:KATA:1,2013-08-02T08:30:00Z,30.2583,-88.2131,0.0,0.83,312.9,-9999.0,'1111122,1111122,1111122' 
DISL,ioos:station:DISL:KATA:1,2013-08-02T09:00:00Z,30.2583,-88.2131,0.0,2.33,6.16,-9999.0,'1111122,1111122,1111122' 
DISL,ioos:station:DISL:KATA:1,2013-08-02T09:30:00Z,30.2583,-88.2131,0.0,4.46,31.02,-9999.0,'1111122,1111122,1111122' 
DISL,ioos:station:DISL:KATA:1,2013-08-02T10:00:00Z,30.2583,-88.2131,0.0,3.4,41.32,-9999.0,'1111122,1111122,1111122' 
DISL,ioos:station:DISL:KATA:1,2013-08-02T10:30:00Z,30.2583,-88.2131,0.0,3.34,50.43,-9999.0,'1111122,1111122,1111122' 
DISL,ioos:station:DISL:KATA:1,2013-08-02T11:00:00Z,30.2583,-88.2131,0.0,3.94,45.27,-9999.0,'1111122,1111122,1111122' 
DISL,ioos:station:DISL:KATA:1,2013-08-02T11:30:00Z,30.2583,-88.2131,0.0,3.88,50.94,-9999.0,'1111122,1111122,1111122' 
DISL,ioos:station:DISL:KATA:1,2013-08-02T12:00:00Z,30.2583,-88.2131,0.0,4.69,31.93,-9999.0,'1111122,1111122,1111122' 
DISL,ioos:station:DISL:KATA:1,2013-08-02T12:30:00Z,30.2583,-88.2131,0.0,3.83,39.07,-9999.0,'1111122,1111122,1111122' 
DISL,ioos:station:DISL:KATA:1,2013-08-02T13:00:00Z,30.2583,-88.2131,0.0,4.16,34.67,-9999.0,'1111122,1111122,1111122' 
DISL,ioos:station:DISL:KATA:1,2013-08-02T13:30:00Z,30.2583,-88.2131,0.0,3.41,37.08,-9999.0,'1111122,1111122,1111122' 
DISL,ioos:station:DISL:KATA:1,2013-08-02T14:00:00Z,30.2583,-88.2131,0.0,3.36,57.96,-9999.0,'1111122,1111122,1111122' 
DISL,ioos:station:DISL:KATA:1,2013-08-02T14:30:00Z,30.2583,-88.2131,0.0,3.81,52.04,-9999.0,'1111122,1111122,1111122' 
DISL,ioos:station:DISL:KATA:1,2013-08-02T15:00:00Z,30.2583,-88.2131,0.0,3.35,73.02,-9999.0,'1111122,1111122,1111122' 
DISL,ioos:station:DISL:KATA:1,2013-08-02T15:30:00Z,30.2583,-88.2131,0.0,3.58,69.53,-9999.0,'1111122,1111122,1111122' 
DISL,ioos:station:DISL:KATA:1,2013-08-02T16:00:00Z,30.2583,-88.2131,0.0,3.57,79.65,-9999.0,'1111122,1111122,1111122' 
DISL,ioos:station:DISL:KATA:1,2013-08-02T16:30:00Z,30.2583,-88.2131,0.0,2.87,69.95,-9999.0,'1111122,1111122,1111122' 
DISL,ioos:station:DISL:KATA:1,2013-08-02T17:00:00Z,30.2583,-88.2131,0.0,3.67,84.4,-9999.0,'1111122,1111122,1111122' 
DISL,ioos:station:DISL:KATA:1,2013-08-02T17:30:00Z,30.2583,-88.2131,0.0,3.53,86.9,-9999.0,'1111122,1111122,1111122' 
DISL,ioos:station:DISL:KATA:1,2013-08-02T18:00:00Z,30.2583,-88.2131,0.0,3.41,83.1,-9999.0,'1111122,1111122,1111122' 
DISL,ioos:station:DISL:KATA:1,2013-08-02T18:30:00Z,30.2583,-88.2131,0.0,2.69,127.6,-9999.0,'1111122,1111122,1111122' 
DISL,ioos:station:DISL:KATA:1,2013-08-02T19:00:00Z,30.2583,-88.2131,0.0,3.79,158.9,-9999.0,'1111122,1111122,1111122' 
DISL,ioos:station:DISL:KATA:1,2013-08-02T19:30:00Z,30.2583,-88.2131,0.0,4.75,166.8,-9999.0,'1111122,1111122,1111122' 
DISL,ioos:station:DISL:KATA:1,2013-08-02T20:00:00Z,30.2583,-88.2131,0.0,4.39,174.6,-9999.0,'1111122,1111122,1111122' 
DISL,ioos:station:DISL:KATA:1,2013-08-02T20:30:00Z,30.2583,-88.2131,0.0,4.47,181.1,-9999.0,'1111122,1111122,1111122' 
DISL,ioos:station:DISL:KATA:1,2013-08-02T21:00:00Z,30.2583,-88.2131,0.0,4.38,182.8,-9999.0,'1111122,1111122,1111122' 
DISL,ioos:station:DISL:KATA:1,2013-08-02T21:30:00Z,30.2583,-88.2131,0.0,4.17,188.8,-9999.0,'1111122,1111122,1111122' 
DISL,ioos:station:DISL:KATA:1,2013-08-02T22:00:00Z,30.2583,-88.2131,0.0,4.2,189.0,-9999.0,'1111122,1111122,1111122' 
DISL,ioos:station:DISL:KATA:1,2013-08-02T22:30:00Z,30.2583,-88.2131,0.0,3.77,206.4,-9999.0,'1111122,1111122,1111122' 
DISL,ioos:station:DISL:KATA:1,2013-08-02T23:00:00Z,30.2583,-88.2131,0.0,3.99,196.9,-9999.0,'1111122,1111122,1111122' 
DISL,ioos:station:DISL:KATA:1,2013-08-02T23:30:00Z,30.2583,-88.2131,0.0,3.71,211.9,-9999.0,'1111122,1111122,1111122' 
DISL,ioos:station:DISL:KATA:1,2013-08-03T00:00:00Z,30.2583,-88.2131,0.0,3.55,217.9,-9999.0,'1111122,1111122,1111122' 
DISL,ioos:station:DISL:KATA:1,2013-08-03T00:30:00Z,30.2583,-88.2131,0.0,3.37,228.0,-9999.0,'1111122,1111122,1111122' 
DISL,ioos:station:DISL:KATA:1,2013-08-03T01:00:00Z,30.2583,-88.2131,0.0,2.88,229.8,-9999.0,'1111122,1111122,1111122' 
DISL,ioos:station:DISL:KATA:1,2013-08-03T01:30:00Z,30.2583,-88.2131,0.0,3.18,215.3,-9999.0,'1111122,1111122,1111122' 
DISL,ioos:station:DISL:KATA:1,2013-08-03T02:00:00Z,30.2583,-88.2131,0.0,2.7,209.2,-9999.0,'1111122,1111122,1111122' 
DISL,ioos:station:DISL:KATA:1,2013-08-03T02:30:00Z,30.2583,-88.2131,0.0,2.58,211.7,-9999.0,'1111122,1111122,1111122' 
DISL,ioos:station:DISL:KATA:1,2013-08-03T03:00:00Z,30.2583,-88.2131,0.0,2.22,188.8,-9999.0,'1111122,1111122,1111122' 
DISL,ioos:station:DISL:KATA:1,2013-08-03T03:30:00Z,30.2583,-88.2131,0.0,2.26,210.5,-9999.0,'1111122,1111122,1111122' 
DISL,ioos:station:DISL:KATA:1,2013-08-03T04:00:00Z,30.2583,-88.2131,0.0,3.01,198.0,-9999.0,'1111122,1111122,1111122' 
DISL,ioos:station:DISL:KATA:1,2013-08-03T04:30:00Z,30.2583,-88.2131,0.0,3.35,196.0,-9999.0,'1111122,1111122,1111122' 
DISL,ioos:station:DISL:KATA:1,2013-08-03T05:00:00Z,30.2583,-88.2131,0.0,4.24,193.0,-9999.0,'1111122,1111122,1111122' 
DISL,ioos:station:DISL:KATA:1,2013-08-03T05:30:00Z,30.2583,-88.2131,0.0,4.51,196.3,-9999.0,'1111122,1111122,1111122' 
DISL,ioos:station:DISL:KATA:1,2013-08-03T06:00:00Z,30.2583,-88.2131,0.0,4.57,198.2,-9999.0,'1111122,1111122,1111122' 
DISL,ioos:station:DISL:KATA:1,2013-08-03T06:30:00Z,30.2583,-88.2131,0.0,4.18,207.3,-9999.0,'1111122,1111122,1111122' 
DISL,ioos:station:DISL:KATA:1,2013-08-03T07:00:00Z,30.2583,-88.2131,0.0,3.93,220.4,-9999.0,'1111122,1111122,1111122' 
DISL,ioos:station:DISL:KATA:1,2013-08-03T07:30:00Z,30.2583,-88.2131,0.0,3.74,222.7,-9999.0,'1111122,1111122,1111122' 
DISL,ioos:station:DISL:KATA:1,2013-08-03T08:00:00Z,30.2583,-88.2131,0.0,4.48,226.8,-9999.0,'1111122,1111122,1111122' 
DISL,ioos:station:DISL:KATA:1,2013-08-03T08:30:00Z,30.2583,-88.2131,0.0,4.28,230.6,-9999.0,'1111122,1111122,1111122' 
DISL,ioos:station:DISL:KATA:1,2013-08-03T09:00:00Z,30.2583,-88.2131,0.0,3.88,233.8,-9999.0,'1111122,1111122,1111122' 
DISL,ioos:station:DISL:KATA:1,2013-08-03T09:30:00Z,30.2583,-88.2131,0.0,3.07,238.1,-9999.0,'1111122,1111122,1111122' 
DISL,ioos:station:DISL:KATA:1,2013-08-03T10:00:00Z,30.2583,-88.2131,0.0,3.08,249.9,-9999.0,'1111122,1111122,1111122' 
DISL,ioos:station:DISL:KATA:1,2013-08-03T10:30:00Z,30.2583,-88.2131,0.0,2.95,258.7,-9999.0,'1111122,1111122,1111122' 
DISL,ioos:station:DISL:KATA:1,2013-08-03T11:00:00Z,30.2583,-88.2131,0.0,2.86,274.3,-9999.0,'1111122,1111122,1111122' 
DISL,ioos:station:DISL:KATA:1,2013-08-03T11:30:00Z,30.2583,-88.2131,0.0,3.16,280.6,-9999.0,'1111122,1111122,1111122' 
DISL,ioos:station:DISL:KATA:1,2013-08-03T12:00:00Z,30.2583,-88.2131,0.0,3.66,268.4,-9999.0,'1111122,1111122,1111122' 
DISL,ioos:station:DISL:KATA:1,2013-08-03T12:30:00Z,30.2583,-88.2131,0.0,2.52,271.1,-9999.0,'1111122,1111122,1111122' 
DISL,ioos:station:DISL:KATA:1,2013-08-03T13:00:00Z,30.2583,-88.2131,0.0,2.43,356.3,-9999.0,'1111122,1111122,1111122' 
DISL,ioos:station:DISL:KATA:1,2013-08-03T13:30:00Z,30.2583,-88.2131,0.0,1.57,359.2,-9999.0,'1111122,1111122,1111122' 
DISL,ioos:station:DISL:KATA:1,2013-08-03T14:00:00Z,30.2583,-88.2131,0.0,1.89,6.617,-9999.0,'1111122,1111122,1111122' 
DISL,ioos:station:DISL:KATA:1,2013-08-03T14:30:00Z,30.2583,-88.2131,0.0,2.0,16.46,-9999.0,'1111122,1111122,1111122' 
DISL,ioos:station:DISL:KATA:1,2013-08-03T15:00:00Z,30.2583,-88.2131,0.0,1.8,329.5,-9999.0,'1111122,1111122,1111122' 
DISL,ioos:station:DISL:KATA:1,2013-08-03T15:30:00Z,30.2583,-88.2131,0.0,1.09,317.5,-9999.0,'1111122,1111122,1111122' 
DISL,ioos:station:DISL:KATA:1,2013-08-03T16:00:00Z,30.2583,-88.2131,0.0,2.08,334.4,-9999.0,'1111122,1111122,1111122' 
DISL,ioos:station:DISL:KATA:1,2013-08-03T16:30:00Z,30.2583,-88.2131,0.0,1.59,304.3,-9999.0,'1111122,1111122,1111122' 
DISL,ioos:station:DISL:KATA:1,2013-08-03T17:00:00Z,30.2583,-88.2131,0.0,1.51,258.4,-9999.0,'1111122,1111122,1111122' 
DISL,ioos:station:DISL:KATA:1,2013-08-03T17:30:00Z,30.2583,-88.2131,0.0,2.1,247.6,-9999.0,'1111122,1111122,1111122' 
DISL,ioos:station:DISL:KATA:1,2013-08-03T18:00:00Z,30.2583,-88.2131,0.0,2.8,247.3,-9999.0,'1111122,1111122,1111122' 
DISL,ioos:station:DISL:KATA:1,2013-08-03T18:30:00Z,30.2583,-88.2131,0.0,3.62,205.7,-9999.0,'1111122,1111122,1111122' 
DISL,ioos:station:DISL:KATA:1,2013-08-03T19:00:00Z,30.2583,-88.2131,0.0,4.5,221.3,-9999.0,'1111122,1111122,1111122' 
DISL,ioos:station:DISL:KATA:1,2013-08-03T19:30:00Z,30.2583,-88.2131,0.0,3.77,226.3,-9999.0,'1111122,1111122,1111122' 
DISL,ioos:station:DISL:KATA:1,2013-08-03T20:00:00Z,30.2583,-88.2131,0.0,3.67,226.9,-9999.0,'1111122,1111122,1111122' 
DISL,ioos:station:DISL:KATA:1,2013-08-03T20:30:00Z,30.2583,-88.2131,0.0,3.14,221.4,-9999.0,'1111122,1111122,1111122' 
DISL,ioos:station:DISL:KATA:1,2013-08-03T21:00:00Z,30.2583,-88.2131,0.0,3.38,218.5,-9999.0,'1111122,1111122,1111122' 
DISL,ioos:station:DISL:KATA:1,2013-08-03T21:30:00Z,30.2583,-88.2131,0.0,4.69,205.8,-9999.0,'1111122,1111122,1111122' 
DISL,ioos:station:DISL:KATA:1,2013-08-03T22:00:00Z,30.2583,-88.2131,0.0,4.14,212.3,-9999.0,'1111122,1111122,1111122' 
DISL,ioos:station:DISL:KATA:1,2013-08-03T22:30:00Z,30.2583,-88.2131,0.0,4.29,207.5,-9999.0,'1111122,1111122,1111122' 
DISL,ioos:station:DISL:KATA:1,2013-08-03T23:00:00Z,30.2583,-88.2131,0.0,3.8,205.5,-9999.0,'1111122,1111122,1111122' 
DISL,ioos:station:DISL:KATA:1,2013-08-03T23:30:00Z,30.2583,-88.2131,0.0,3.61,209.8,-9999.0,'1111122,1111122,1111122' 
DISL,ioos:station:DISL:KATA:1,2013-08-04T00:00:00Z,30.2583,-88.2131,0.0,4.52,219.5,-9999.0,'1111122,1111122,1111122' 
DISL,ioos:station:DISL:KATA:1,2013-08-04T00:30:00Z,30.2583,-88.2131,0.0,4.71,234.7,-9999.0,'1111122,1111122,1111122' 
DISL,ioos:station:DISL:KATA:1,2013-08-04T01:00:00Z,30.2583,-88.2131,0.0,4.94,238.2,-9999.0,'1111122,1111122,1111122' 
DISL,ioos:station:DISL:KATA:1,2013-08-04T01:30:00Z,30.2583,-88.2131,0.0,4.79,235.4,-9999.0,'1111122,1111122,1111122' 
DISL,ioos:station:DISL:KATA:1,2013-08-04T02:00:00Z,30.2583,-88.2131,0.0,4.83,239.3,-9999.0,'1111122,1111122,1111122' 
DISL,ioos:station:DISL:KATA:1,2013-08-04T02:30:00Z,30.2583,-88.2131,0.0,4.53,240.5,-9999.0,'1111122,1111122,1111122' 
DISL,ioos:station:DISL:KATA:1,2013-08-04T03:00:00Z,30.2583,-88.2131,0.0,4.56,244.6,-9999.0,'1111122,1111122,1111122' 
DISL,ioos:station:DISL:KATA:1,2013-08-04T03:30:00Z,30.2583,-88.2131,0.0,4.27,245.2,-9999.0,'1111122,1111122,1111122' 
DISL,ioos:station:DISL:KATA:1,2013-08-04T04:00:00Z,30.2583,-88.2131,0.0,4.54,239.3,-9999.0,'1111122,1111122,1111122' 
DISL,ioos:station:DISL:KATA:1,2013-08-04T04:30:00Z,30.2583,-88.2131,0.0,4.43,234.9,-9999.0,'1111122,1111122,1111122' 
DISL,ioos:station:DISL:KATA:1,2013-08-04T05:00:00Z,30.2583,-88.2131,0.0,4.63,242.2,-9999.0,'1111122,1111122,1111122' 
DISL,ioos:station:DISL:KATA:1,2013-08-04T05:30:00Z,30.2583,-88.2131,0.0,4.72,242.6,-9999.0,'1111122,1111122,1111122' 
DISL,ioos:station:DISL:KATA:1,2013-08-04T06:00:00Z,30.2583,-88.2131,0.0,4.67,242.7,-9999.0,'1111122,1111122,1111122' 
DISL,ioos:station:DISL:KATA:1,2013-08-04T06:30:00Z,30.2583,-88.2131,0.0,4.15,254.2,-9999.0,'1111122,1111122,1111122' 
DISL,ioos:station:DISL:KATA:1,2013-08-04T07:00:00Z,30.2583,-88.2131,0.0,3.99,259.9,-9999.0,'1111122,1111122,1111122' 
DISL,ioos:station:DISL:KATA:1,2013-08-04T07:30:00Z,30.2583,-88.2131,0.0,4.59,252.7,-9999.0,'1111122,1111122,1111122' 
DISL,ioos:station:DISL:KATA:1,2013-08-04T08:00:00Z,30.2583,-88.2131,0.0,4.61,269.0,-9999.0,'1111122,1111122,1111122' 
DISL,ioos:station:DISL:KATA:1,2013-08-04T08:30:00Z,30.2583,-88.2131,0.0,4.91,269.1,-9999.0,'1111122,1111122,1111122' 
DISL,ioos:station:DISL:KATA:1,2013-08-04T09:00:00Z,30.2583,-88.2131,0.0,5.2,282.4,-9999.0,'1111122,1111122,1111122' 
DISL,ioos:station:DISL:KATA:1,2013-08-04T09:30:00Z,30.2583,-88.2131,0.0,5.7,291.4,-9999.0,'1111122,1111122,1111122' 
DISL,ioos:station:DISL:KATA:1,2013-08-04T10:00:00Z,30.2583,-88.2131,0.0,5.68,320.5,-9999.0,'1111122,1111122,1111122' 
DISL,ioos:station:DISL:KATA:1,2013-08-04T10:30:00Z,30.2583,-88.2131,0.0,5.26,322.7,-9999.0,'1111122,1111122,1111122' 
DISL,ioos:station:DISL:KATA:1,2013-08-04T11:00:00Z,30.2583,-88.2131,0.0,5.98,316.7,-9999.0,'1111122,1111122,1111122' 
DISL,ioos:station:DISL:KATA:1,2013-08-04T11:30:00Z,30.2583,-88.2131,0.0,6.34,320.4,-9999.0,'1111122,1111122,1111122' 
DISL,ioos:station:DISL:KATA:1,2013-08-04T12:00:00Z,30.2583,-88.2131,0.0,7.32,317.5,-9999.0,'1111122,1111122,1111122' 
DISL,ioos:station:DISL:KATA:1,2013-08-04T12:30:00Z,30.2583,-88.2131,0.0,6.72,324.4,-9999.0,'1111122,1111122,1111122' 
DISL,ioos:station:DISL:KATA:1,2013-08-04T13:00:00Z,30.2583,-88.2131,0.0,5.8,316.4,-9999.0,'1111122,1111122,1111122' 
DISL,ioos:station:DISL:KATA:1,2013-08-04T13:30:00Z,30.2583,-88.2131,0.0,5.77,323.7,-9999.0,'1111122,1111122,1111122' 
DISL,ioos:station:DISL:KATA:1,2013-08-04T14:00:00Z,30.2583,-88.2131,0.0,5.3,299.7,-9999.0,'1111122,1111122,1111122' 
DISL,ioos:station:DISL:KATA:1,2013-08-04T14:30:00Z,30.2583,-88.2131,0.0,4.87,302.3,-9999.0,'1111122,1111122,1111122' 
DISL,ioos:station:DISL:KATA:1,2013-08-04T15:00:00Z,30.2583,-88.2131,0.0,4.47,313.6,-9999.0,'1111122,1111122,1111122' 
DISL,ioos:station:DISL:KATA:1,2013-08-04T15:30:00Z,30.2583,-88.2131,0.0,3.84,316.5,-9999.0,'1111122,1111122,1111122' 
DISL,ioos:station:DISL:KATA:1,2013-08-04T16:00:00Z,30.2583,-88.2131,0.0,2.63,307.8,-9999.0,'1111122,1111122,1111122' 
DISL,ioos:station:DISL:KATA:1,2013-08-04T16:30:00Z,30.2583,-88.2131,0.0,2.94,307.5,-9999.0,'1111122,1111122,1111122' 
DISL,ioos:station:DISL:KATA:1,2013-08-04T17:00:00Z,30.2583,-88.2131,0.0,2.51,277.9,-9999.0,'1111122,1111122,1111122' 
DISL,ioos:station:DISL:KATA:1,2013-08-04T17:30:00Z,30.2583,-88.2131,0.0,3.23,251.5,-9999.0,'1111122,1111122,1111122' 
DISL,ioos:station:DISL:KATA:1,2013-08-04T18:00:00Z,30.2583,-88.2131,0.0,3.43,257.1,-9999.0,'1111122,1111122,1111122' 
DISL,ioos:station:DISL:KATA:1,2013-08-04T18:30:00Z,30.2583,-88.2131,0.0,3.65,260.8,-9999.0,'1111122,1111122,1111122' 
DISL,ioos:station:DISL:KATA:1,2013-08-04T19:00:00Z,30.2583,-88.2131,0.0,3.97,260.6,-9999.0,'1111122,1111122,1111122' 
DISL,ioos:station:DISL:KATA:1,2013-08-04T19:30:00Z,30.2583,-88.2131,0.0,5.18,245.4,-9999.0,'1111122,1111122,1111122' 
DISL,ioos:station:DISL:KATA:1,2013-08-04T20:00:00Z,30.2583,-88.2131,0.0,5.74,241.1,-9999.0,'1111122,1111122,1111122' 
DISL,ioos:station:DISL:KATA:1,2013-08-04T20:30:00Z,30.2583,-88.2131,0.0,6.0,242.2,-9999.0,'1111122,1111122,1111122' 
DISL,ioos:station:DISL:KATA:1,2013-08-04T21:00:00Z,30.2583,-88.2131,0.0,6.23,245.5,-9999.0,'1111122,1111122,1111122' 
DISL,ioos:station:DISL:KATA:1,2013-08-04T21:30:00Z,30.2583,-88.2131,0.0,6.46,241.5,-9999.0,'1111122,1111122,1111122' 
DISL,ioos:station:DISL:KATA:1,2013-08-04T22:00:00Z,30.2583,-88.2131,0.0,6.57,243.9,-9999.0,'1111122,1111122,1111122' 
DISL,ioos:station:DISL:KATA:1,2013-08-04T22:30:00Z,30.2583,-88.2131,0.0,6.38,249.3,-9999.0,'1111122,1111122,1111122' 
DISL,ioos:station:DISL:KATA:1,2013-08-04T23:00:00Z,30.2583,-88.2131,0.0,6.6,248.4,-9999.0,'1111122,1111122,1111122' 
DISL,ioos:station:DISL:KATA:1,2013-08-04T23:30:00Z,30.2583,-88.2131,0.0,6.45,245.2,-9999.0,'1111122,1111122,1111122' 
DISL,ioos:station:DISL:KATA:1,2013-08-05T00:00:00Z,30.2583,-88.2131,0.0,7.34,325.3,-9999.0,'1111122,1111122,1111122' 
DISL,ioos:station:DISL:KATA:1,2013-08-05T00:30:00Z,30.2583,-88.2131,0.0,3.83,60.25,-9999.0,'1111122,1111122,1111122' 
DISL,ioos:station:DISL:KATA:1,2013-08-05T01:00:00Z,30.2583,-88.2131,0.0,1.97,108.9,-9999.0,'1111122,1111122,1111122' 
DISL,ioos:station:DISL:KATA:1,2013-08-05T01:30:00Z,30.2583,-88.2131,0.0,2.57,163.1,-9999.0,'1111122,1111122,1111122' 
DISL,ioos:station:DISL:KATA:1,2013-08-05T02:00:00Z,30.2583,-88.2131,0.0,1.22,144.6,-9999.0,'1111122,1111122,1111122' 
DISL,ioos:station:DISL:KATA:1,2013-08-05T02:30:00Z,30.2583,-88.2131,0.0,1.25,175.2,-9999.0,'1111122,1111122,1111122' 
DISL,ioos:station:DISL:KATA:1,2013-08-05T03:00:00Z,30.2583,-88.2131,0.0,0.89,173.3,-9999.0,'1111122,1111122,1111122' 
DISL,ioos:station:DISL:KATA:1,2013-08-05T03:30:00Z,30.2583,-88.2131,0.0,1.29,103.5,-9999.0,'1111122,1111122,1111122' 
DISL,ioos:station:DISL:KATA:1,2013-08-05T04:00:00Z,30.2583,-88.2131,0.0,2.76,82.7,-9999.0,'1111122,1111122,1111122' 
DISL,ioos:station:DISL:KATA:1,2013-08-05T04:30:00Z,30.2583,-88.2131,0.0,2.31,100.1,-9999.0,'1111122,1111122,1111122' 